Time,TemperatureF,DewpointF,PressureIn,WindDirection,WindDirectionDegrees,WindSpeedMPH,WindSpeedGustMPH,Humidity,HourlyPrecipIn,Conditions,Clouds,dailyrainin,SoftwareType,DateUTC
2013-02-24 00:06:00,44.9,45.0,30.12,NNW,328,1.0,-999.0,100,-99.99,,,0.00,weatherlink.com 1.10,2013-02-23 22:06:00,
2013-02-24 00:21:00,44.5,45.0,30.13,NW,318,0.0,-999.0,100,-99.99,,,0.00,weatherlink.com 1.10,2013-02-23 22:21:00,
2013-02-24 00:36:00,44.3,44.0,30.14,North,0,0.0,-999.0,100,-99.99,,,0.00,weatherlink.com 1.10,2013-02-23 22:36:00,
2013-02-24 00:51:00,44.2,44.0,30.14,West,281,1.0,-999.0,100,-99.99,,,0.00,weatherlink.com 1.10,2013-02-23 22:51:00,
2013-02-24 01:06:00,43.9,44.0,30.13,North,0,1.0,-999.0,100,-99.99,,,0.00,weatherlink.com 1.10,2013-02-23 23:06:00,
2013-02-24 01:21:00,43.9,44.0,30.14,North,353,0.0,-999.0,100,-99.99,,,0.00,weatherlink.com 1.10,2013-02-23 23:21:00,
2013-02-24 01:36:00,43.9,44.0,30.15,NE,44,0.0,-999.0,100,-99.99,,,0.00,weatherlink.com 1.10,2013-02-23 23:36:00,
2013-02-24 01:51:00,43.9,44.0,30.15,North,353,0.0,-999.0,100,-99.99,,,0.00,weatherlink.com 1.10,2013-02-23 23:51:00,
2013-02-24 02:06:00,43.8,44.0,30.15,North,0,0.0,-999.0,100,-99.99,,,0.00,weatherlink.com 1.10,2013-02-24 00:06:00,
2013-02-24 02:21:00,43.6,44.0,30.15,NNE,20,0.0,-999.0,100,-99.99,,,0.00,weatherlink.com 1.10,2013-02-24 00:21:00,
2013-02-24 02:36:00,43.6,44.0,30.15,WNW,296,0.0,-999.0,100,-99.99,,,0.00,weatherlink.com 1.10,2013-02-24 00:36:00,
2013-02-24 02:51:00,43.5,44.0,30.15,NW,305,0.0,-999.0,100,-99.99,,,0.00,weatherlink.com 1.10,2013-02-24 00:51:00,
2013-02-24 03:06:00,43.5,44.0,30.15,WNW,296,0.0,-999.0,100,-99.99,,,0.00,weatherlink.com 1.10,2013-02-24 01:06:00,
2013-02-24 03:21:00,43.5,44.0,30.16,North,359,0.0,-999.0,100,-99.99,,,0.00,weatherlink.com 1.10,2013-02-24 01:21:00,
2013-02-24 03:36:00,43.2,43.0,30.16,North,10,0.0,-999.0,100,-99.99,,,0.00,weatherlink.com 1.10,2013-02-24 01:36:00,
2013-02-24 03:51:00,43.1,43.0,30.16,NNE,20,0.0,-999.0,100,-99.99,,,0.00,weatherlink.com 1.10,2013-02-24 01:51:00,
2013-02-24 04:06:00,42.9,43.0,30.16,North,11,0.0,-999.0,100,-99.99,,,0.00,weatherlink.com 1.10,2013-02-24 02:06:00,
2013-02-24 04:21:00,43.1,43.0,30.16,NNW,340,1.0,-999.0,100,-99.99,,,0.00,weatherlink.com 1.10,2013-02-24 02:21:00,
2013-02-24 04:36:00,43.1,43.0,30.16,NNE,24,0.0,-999.0,100,-99.99,,,0.00,weatherlink.com 1.10,2013-02-24 02:36:00,
2013-02-24 04:51:00,42.8,43.0,30.16,NNE,24,0.0,-999.0,100,-99.99,,,0.00,weatherlink.com 1.10,2013-02-24 02:51:00,
2013-02-24 05:06:00,42.6,43.0,30.16,NE,41,0.0,-999.0,100,-99.99,,,0.00,weatherlink.com 1.10,2013-02-24 03:06:00,
2013-02-24 05:21:00,42.6,43.0,30.17,North,7,0.0,-999.0,100,-99.99,,,0.00,weatherlink.com 1.10,2013-02-24 03:21:00,
2013-02-24 05:36:00,42.6,43.0,30.17,NE,41,2.0,-999.0,100,-99.99,,,0.00,weatherlink.com 1.10,2013-02-24 03:36:00,
2013-02-24 05:51:00,42.5,43.0,30.18,NE,41,2.0,-999.0,100,-99.99,,,0.00,weatherlink.com 1.10,2013-02-24 03:51:00,
2013-02-24 06:07:00,42.1,42.0,30.18,NNE,14,6.0,-999.0,100,-99.99,,,0.00,weatherlink.com 1.10,2013-02-24 04:07:00,
2013-02-24 06:22:00,41.8,42.0,30.19,NNE,14,2.0,-999.0,100,-99.99,,,0.00,weatherlink.com 1.10,2013-02-24 04:22:00,
2013-02-24 06:37:00,42.1,42.0,30.19,NNE,14,0.0,-999.0,100,-99.99,,,0.00,weatherlink.com 1.10,2013-02-24 04:37:00,
2013-02-24 06:52:00,42.3,42.0,30.20,NNE,30,0.0,-999.0,100,-99.99,,,0.00,weatherlink.com 1.10,2013-02-24 04:52:00,
2013-02-24 07:07:00,42.6,43.0,30.20,ESE,109,0.0,-999.0,100,-99.99,,,0.00,weatherlink.com 1.10,2013-02-24 05:07:00,
2013-02-24 07:22:00,42.9,43.0,30.21,ESE,109,0.0,-999.0,100,-99.99,,,0.00,weatherlink.com 1.10,2013-02-24 05:22:00,
2013-02-24 07:37:00,43.3,43.0,30.21,SSE,164,0.0,-999.0,100,-99.99,,,0.00,weatherlink.com 1.10,2013-02-24 05:37:00,
2013-02-24 07:52:00,43.5,44.0,30.21,ESE,106,0.0,-999.0,100,-99.99,,,0.00,weatherlink.com 1.10,2013-02-24 05:52:00,
2013-02-24 08:07:00,43.5,44.0,30.22,ESE,112,2.0,-999.0,100,-99.99,,,0.00,weatherlink.com 1.10,2013-02-24 06:07:00,
2013-02-24 08:22:00,43.3,43.0,30.22,NE,44,1.0,-999.0,100,-99.99,,,0.00,weatherlink.com 1.10,2013-02-24 06:22:00,
2013-02-24 08:37:00,43.1,43.0,30.21,ENE,66,2.0,-999.0,100,-99.99,,,0.00,weatherlink.com 1.10,2013-02-24 06:37:00,
2013-02-24 08:52:00,43.5,44.0,30.21,NE,54,0.0,-999.0,100,-99.99,,,0.00,weatherlink.com 1.10,2013-02-24 06:52:00,
2013-02-24 09:07:00,44.2,44.0,30.22,NNE,30,1.0,-999.0,100,-99.99,,,0.00,weatherlink.com 1.10,2013-02-24 07:07:00,
2013-02-24 09:22:00,44.8,45.0,30.22,NE,52,0.0,-999.0,100,-99.99,,,0.00,weatherlink.com 1.10,2013-02-24 07:22:00,
2013-02-24 09:37:00,45.5,46.0,30.21,NNE,24,0.0,-999.0,100,-99.99,,,0.00,weatherlink.com 1.10,2013-02-24 07:37:00,
2013-02-24 09:52:00,46.8,47.0,30.21,NE,41,0.0,-999.0,100,-99.99,,,0.00,weatherlink.com 1.10,2013-02-24 07:52:00,
2013-02-24 10:07:00,47.4,47.0,30.22,NNE,24,1.0,-999.0,100,-99.99,,,0.00,weatherlink.com 1.10,2013-02-24 08:07:00,
2013-02-24 10:22:00,48.8,49.0,30.22,NE,48,1.0,-999.0,100,-99.99,,,0.00,weatherlink.com 1.10,2013-02-24 08:22:00,
2013-02-24 10:37:00,49.4,49.0,30.22,North,354,0.0,-999.0,100,-99.99,,,0.00,weatherlink.com 1.10,2013-02-24 08:37:00,
2013-02-24 10:52:00,50.1,50.0,30.21,NE,49,3.0,-999.0,100,-99.99,,,0.01,weatherlink.com 1.10,2013-02-24 08:52:00,
2013-02-24 11:07:00,50.2,50.0,30.21,East,85,4.0,-999.0,100,-99.99,,,0.01,weatherlink.com 1.10,2013-02-24 09:07:00,
2013-02-24 11:22:00,51.7,52.0,30.21,NE,37,1.0,-999.0,100,-99.99,,,0.01,weatherlink.com 1.10,2013-02-24 09:22:00,
2013-02-24 11:37:00,52.9,53.0,30.21,East,85,0.0,-999.0,100,-99.99,,,0.01,weatherlink.com 1.10,2013-02-24 09:37:00,
2013-02-24 11:53:00,53.1,53.0,30.21,NE,44,0.0,-999.0,100,-99.99,,,0.01,weatherlink.com 1.10,2013-02-24 09:53:00,
2013-02-24 12:07:00,53.9,54.0,30.20,ENE,71,3.0,-999.0,100,-99.99,,,0.01,weatherlink.com 1.10,2013-02-24 10:07:00,
2013-02-24 12:23:00,54.4,54.0,30.19,NE,52,2.0,-999.0,100,-99.99,,,0.01,weatherlink.com 1.10,2013-02-24 10:23:00,
2013-02-24 12:38:00,54.4,54.0,30.18,NNE,17,6.0,-999.0,100,-99.99,,,0.01,weatherlink.com 1.10,2013-02-24 10:38:00,
2013-02-24 12:53:00,54.8,55.0,30.18,ESE,112,3.0,-999.0,100,-99.99,,,0.01,weatherlink.com 1.10,2013-02-24 10:53:00,
2013-02-24 13:08:00,55.6,56.0,30.18,ENE,61,4.0,-999.0,100,-99.99,,,0.01,weatherlink.com 1.10,2013-02-24 11:08:00,
2013-02-24 13:23:00,56.3,56.0,30.17,NNE,27,6.0,-999.0,100,-99.99,,,0.01,weatherlink.com 1.10,2013-02-24 11:23:00,
2013-02-24 13:38:00,56.0,56.0,30.17,NNE,30,5.0,-999.0,100,-99.99,,,0.01,weatherlink.com 1.10,2013-02-24 11:38:00,
2013-02-24 13:53:00,55.4,55.0,30.17,NNE,24,2.0,-999.0,100,-99.99,,,0.01,weatherlink.com 1.10,2013-02-24 11:53:00,
2013-02-24 14:08:00,55.0,55.0,30.17,NNE,20,7.0,-999.0,100,-99.99,,,0.01,weatherlink.com 1.10,2013-02-24 12:08:00,
2013-02-24 14:23:00,54.1,54.0,30.17,North,8,8.0,-999.0,100,-99.99,,,0.01,weatherlink.com 1.10,2013-02-24 12:23:00,
2013-02-24 14:38:00,52.8,53.0,30.17,NE,45,7.0,-999.0,100,-99.99,,,0.01,weatherlink.com 1.10,2013-02-24 12:38:00,
2013-02-24 14:53:00,52.3,52.0,30.17,NNE,23,6.0,-999.0,100,-99.99,,,0.01,weatherlink.com 1.10,2013-02-24 12:53:00,
2013-02-24 15:08:00,50.8,51.0,30.18,North,8,6.0,-999.0,100,-99.99,,,0.01,weatherlink.com 1.10,2013-02-24 13:08:00,
2013-02-24 15:23:00,50.4,50.0,30.18,NNE,27,7.0,-999.0,100,-99.99,,,0.01,weatherlink.com 1.10,2013-02-24 13:23:00,
2013-02-24 15:38:00,50.2,50.0,30.18,NNE,17,9.0,-999.0,100,-99.99,,,0.01,weatherlink.com 1.10,2013-02-24 13:38:00,
2013-02-24 15:54:00,49.4,49.0,30.18,NNE,31,6.0,-999.0,100,-99.99,,,0.01,weatherlink.com 1.10,2013-02-24 13:54:00,
2013-02-24 16:09:00,48.8,49.0,30.18,NE,41,5.0,-999.0,100,-99.99,,,0.01,weatherlink.com 1.10,2013-02-24 14:09:00,
2013-02-24 16:24:00,47.7,48.0,30.18,NE,34,6.0,-999.0,100,-99.99,,,0.01,weatherlink.com 1.10,2013-02-24 14:24:00,
2013-02-24 16:39:00,46.4,46.0,30.18,NNE,17,7.0,-999.0,100,-99.99,,,0.01,weatherlink.com 1.10,2013-02-24 14:39:00,
2013-02-24 16:54:00,45.7,46.0,30.18,NNE,27,3.0,-999.0,100,-99.99,,,0.01,weatherlink.com 1.10,2013-02-24 14:54:00,
2013-02-24 17:09:00,45.4,45.0,30.18,NNE,17,5.0,-999.0,100,-99.99,,,0.01,weatherlink.com 1.10,2013-02-24 15:09:00,
2013-02-24 17:24:00,45.1,45.0,30.19,NE,41,3.0,-999.0,100,-99.99,,,0.01,weatherlink.com 1.10,2013-02-24 15:24:00,
2013-02-24 17:39:00,44.3,44.0,30.19,North,11,2.0,-999.0,100,-99.99,,,0.01,weatherlink.com 1.10,2013-02-24 15:39:00,
2013-02-24 17:54:00,43.9,44.0,30.20,NE,34,2.0,-999.0,100,-99.99,,,0.01,weatherlink.com 1.10,2013-02-24 15:54:00,
2013-02-24 18:09:00,43.8,44.0,30.20,NE,44,5.0,-999.0,100,-99.99,,,0.01,weatherlink.com 1.10,2013-02-24 16:09:00,
2013-02-24 18:24:00,43.8,44.0,30.20,NNE,25,11.0,-999.0,100,-99.99,,,0.01,weatherlink.com 1.10,2013-02-24 16:24:00,
2013-02-24 18:39:00,43.8,44.0,30.21,NNE,30,8.0,-999.0,100,-99.99,,,0.01,weatherlink.com 1.10,2013-02-24 16:39:00,
2013-02-24 18:54:00,43.9,44.0,30.21,NE,37,10.0,-999.0,100,-99.99,,,0.01,weatherlink.com 1.10,2013-02-24 16:54:00,
2013-02-24 19:10:00,43.9,44.0,30.21,NNE,16,2.0,-999.0,100,-99.99,,,0.01,weatherlink.com 1.10,2013-02-24 17:10:00,
2013-02-24 19:25:00,43.5,44.0,30.21,NE,37,7.0,-999.0,100,-99.99,,,0.01,weatherlink.com 1.10,2013-02-24 17:25:00,
2013-02-24 19:40:00,43.2,43.0,30.21,ENE,66,4.0,-999.0,100,-99.99,,,0.01,weatherlink.com 1.10,2013-02-24 17:40:00,
2013-02-24 19:55:00,43.1,43.0,30.21,NE,48,3.0,-999.0,100,-99.99,,,0.01,weatherlink.com 1.10,2013-02-24 17:55:00,
2013-02-24 20:10:00,42.9,43.0,30.21,ENE,58,5.0,-999.0,100,-99.99,,,0.01,weatherlink.com 1.10,2013-02-24 18:10:00,
2013-02-24 20:25:00,43.1,43.0,30.20,ENE,68,6.0,-999.0,100,-99.99,,,0.01,weatherlink.com 1.10,2013-02-24 18:25:00,
2013-02-24 20:40:00,43.3,43.0,30.20,ENE,72,5.0,-999.0,100,-99.99,,,0.01,weatherlink.com 1.10,2013-02-24 18:40:00,
2013-02-24 20:55:00,43.5,44.0,30.20,NE,40,0.0,-999.0,100,-99.99,,,0.01,weatherlink.com 1.10,2013-02-24 18:55:00,
2013-02-24 21:10:00,43.5,44.0,30.20,NE,49,0.0,-999.0,100,-99.99,,,0.01,weatherlink.com 1.10,2013-02-24 19:10:00,
2013-02-24 21:25:00,43.6,44.0,30.20,ENE,73,1.0,-999.0,100,-99.99,,,0.01,weatherlink.com 1.10,2013-02-24 19:25:00,
2013-02-24 21:40:00,43.9,44.0,30.20,NNE,21,2.0,-999.0,100,-99.99,,,0.01,weatherlink.com 1.10,2013-02-24 19:40:00,
2013-02-24 21:55:00,43.9,44.0,30.21,NNE,24,1.0,-999.0,100,-99.99,,,0.01,weatherlink.com 1.10,2013-02-24 19:55:00,
2013-02-24 22:10:00,43.9,44.0,30.21,NE,34,0.0,-999.0,100,-99.99,,,0.01,weatherlink.com 1.10,2013-02-24 20:10:00,
2013-02-24 22:25:00,43.9,44.0,30.22,NE,34,3.0,-999.0,100,-99.99,,,0.01,weatherlink.com 1.10,2013-02-24 20:25:00,
2013-02-24 22:41:00,43.8,44.0,30.21,NNE,32,0.0,-999.0,100,-99.99,,,0.01,weatherlink.com 1.10,2013-02-24 20:41:00,
2013-02-24 22:56:00,43.8,44.0,30.21,NNE,18,0.0,-999.0,100,-99.99,,,0.01,weatherlink.com 1.10,2013-02-24 20:56:00,
2013-02-24 23:11:00,43.2,43.0,30.20,NNE,28,1.0,-999.0,100,-99.99,,,0.01,weatherlink.com 1.10,2013-02-24 21:11:00,
2013-02-24 23:26:00,43.1,43.0,30.20,NNE,25,0.0,-999.0,100,-99.99,,,0.01,weatherlink.com 1.10,2013-02-24 21:26:00,
2013-02-24 23:41:00,42.9,43.0,30.20,NNE,30,0.0,-999.0,100,-99.99,,,0.01,weatherlink.com 1.10,2013-02-24 21:41:00,
2013-02-24 23:56:00,42.9,43.0,30.20,NNE,28,0.0,-999.0,100,-99.99,,,0.00,weatherlink.com 1.10,2013-02-24 21:56:00,